Regional Weather Roundup
Issued by NWS Wakefield, VA

Home | Current Version | Previous Version | Graphics & Text | Print | Product List | Glossary On
Versions: 1 2 3 4 5 6 7 8 9 10 11 12 13 14 15 16 17 18 19 20 21 22 23 24 25 26 27
000
ASUS41 KAKQ 232315
RWRAKQ

REGIONAL WEATHER ROUNDUP
NATIONAL WEATHER SERVICE WAKEFIELD VA
700 PM EDT TUE MAY 23 2017

Note: "fair" indicates few or no clouds below 12,000 feet with no
significant weather and/or obstructions to visibility. * = Denotes
station may not report precipitation (e.g., rain,snow,etc.),
thunder or fog.

VAZ042-051-052>054-056-240000-
NORTHERN VIRGINIA

CITY           SKY/WX    TMP DP  RH WIND       PRES   REMARKS
WASH NATIONAL  LGT RAIN  64  60  87 E7        29.81F
DULLES         LGT RAIN  61  57  87 N7        29.81F
FORT BELVOIR   LGT RAIN  62  57  83 SE3       29.81S
QUANTICO       LGT RAIN  64  62  93 E9        29.81S
FREDERICKSBRG* LGT RAIN  63  63 100 NE5       29.79F
STAFFORD*      LGT RAIN  62  62 100 E5        29.84S
WARRENTON      RAIN      64  58  83 N5        29.80S
CULPEPER*      DRIZZLE   63  60  91 N3        29.81F
MANASSAS*      LGT RAIN  64  60  87 E3        29.81F
LEESBURG*      LGT RAIN  61  59  94 NE5       29.83F
WINCHESTER     CLOUDY    59  54  82 E3        29.81F
FRONT ROYAL*   CLOUDY    59  57  94 CALM      29.81F
LURAY*         LGT RAIN  59  59 100 NE6       29.81F
$$

VAZ048-049-060>072-079>083-240000-
CENTRAL AND SOUTH CENTRAL VIRGINIA

CITY           SKY/WX    TMP DP  RH WIND       PRES   REMARKS
RICHMOND       RAIN      62  62 100 NE8       29.76F FOG
CHESTERFIELD*  NOT AVBL
PETERSBURG*    LGT RAIN  62  61  97 NE9       29.76S
HANOVER        LGT RAIN  62  59  90 NE6       29.78F FOG
TAPPAHANNOCK*  RAIN      62  62 100 NE6       29.79F
QUINTON*       CLOUDY    62  62 100 NE6       29.76F FOG
CHARLOTTSVILLE RAIN      61  59  93 N6        29.79F FOG
GORDONSVILLE*  CLOUDY    60  60 100 NE3       29.79S FOG
ORANGE*        RAIN      61  59  94 CALM      29.80S
LOUISA*        DRIZZLE   66  64  94 CALM      29.78S
BUMPASS*       CLOUDY    62  62 100 NW3       29.78F
FARMVILLE*     RAIN      64  60  90 NE8       29.75F
CREWE*         CLOUDY    62  58  87 NE5       29.75F
FORT PICKETT*  CLOUDY   N/A N/A N/A NE8       29.74F
CHASE CITY*    CLOUDY    62  60  94 NE3       29.73F
CLARKSVILLE*   CLOUDY    63  63 100 CALM      29.72F
SOUTH HILL*    CLOUDY    62  62 100 N3        29.78F
LAWRENCEVILLE* CLOUDY    63  62  97 NE6       29.73S
EMPORIA*       RAIN      63  63 100 N3        29.74F
$$

VAZ088>098-240000-
SOUTHEAST VIRGINIA

CITY           SKY/WX    TMP DP  RH WIND       PRES   REMARKS
NORFOLK        HVY RAIN  61  60  97 NE12      29.73F FOG
VIRGINIA BEACH HVY RAIN  61  60  97 E10       29.72F FOG
NORFOLK NAVAL  RAIN      63  61  93 NE14      29.75F FOG
WEST POINT*    CLOUDY    62  60  96 NE7       29.78S
SALUDA*        CLOUDY    61  61 100 NE7       29.77F
NEWPORT NEWS   LGT RAIN  62  60  93 NE12      29.75F FOG
LANGLEY AFB    LGT RAIN  62  62 100 NE15      29.74F
FORT EUSTIS    LGT RAIN  62  61  94 E8        29.73F
WILLIAMSBURG*  CLOUDY    64  64 100 CALM      29.76F
HR EXEC AP*    CLOUDY    64  61  88 NE7       29.71F
FRANKLIN*      HVY RAIN  62  61  96 NE10      29.73F
US460-WAKEFLD  LGT RAIN  62  62 100 VRB6      29.74F FOG
$$

VAZ020-022-025-037-045-240000-
WEST CENTRAL AND SOUTHWEST VIRGINIA

CITY           SKY/WX    TMP DP  RH WIND       PRES   REMARKS
STAUNTON*      LGT RAIN  58  56  94 N5        29.82F
WAYNESBORO*    CLOUDY    57  57 100 N7        29.80F
HOT SPRINGS VA RAIN      50  48  93 E10G16    29.81F VSB<1/4
LYNCHBURG      LGT RAIN  59  58  96 NE8       29.77F FOG
DANVILLE       LGT RAIN  62  62 100 NE8       29.72F
SOUTH BOSTON*  CLOUDY    63  61  94 NE5       29.74S
MARTINSVILLE   DRIZZLE   58  57  96 N3        29.77F
ROANOKE        LGT RAIN  58  58 100 NE8       29.77F FOG
BLACKSBURG     LGT RAIN  57  55  92 E13       29.78F
DUBLIN*        LGT RAIN  58  55  89 E7        29.77F
MARION*        LGT RAIN  58  56  91 NE9       29.77S
HILLSVILLE*    LGT RAIN  56  52  86 E8G18     29.74F
RICHLANDS*     LGT RAIN  58  58  98 SE3       29.73S
WISE*          RAIN      61  61 100 CALM      29.74S
ABINGDON*      RAIN      64  63  99 E3        29.71F
$$

MDZ021>025-VAZ099-100-240000-
SOUTHERN MARYLAND AND THE DELMARVA PENINSULA

CITY           SKY/WX    TMP DP  RH WIND       PRES   REMARKS
PATUXENT RIVER LGT RAIN  60  60 100 NE6       29.80F FOG
BAY BRIDGE APT CLOUDY    64  54  68 SE6       29.81F
LEONARDTOWN    CLOUDY    59  55  88 CALM      29.82S
DOVER          PTSUNNY   62  59  89 E5        29.81S
GEORGETOWN     CLOUDY    61  53  75 E6        29.82F
EASTON         MOSUNNY   63  54  72 CALM      29.85F
CAMBRIDGE      PTSUNNY   61  54  77 E7        29.80F
SALISBURY      LGT RAIN  59  55  87 E9        29.80F
OCEAN CITY     CLOUDY    58  54  86 NE9       29.81F
WALLOPS ISLAND LGT RAIN  58  58 100 NE9       29.80S
ACCOMACK*      LGT RAIN  60  41  50 NE8       29.78S
$$

NCZ012>017-030>032-240000-
NORTH CENTRAL AND EASTERN NORTH CAROLINA

CITY           SKY/WX    TMP DP  RH WIND       PRES   REMARKS
ROANOKE RAPIDS NOT AVBL
RALEIGH        DRIZZLE   68  66  93 NE6       29.69F
ELIZABETH CITY HVY RAIN  67  67 100 E7        29.70F FOG
AHOSKIE*       HVY RAIN  65  64  97 NE8       29.70F
EDENTON*       HVY RAIN  70  68  93 CALM      29.70F
CURRITUCK*     RAIN     N/A N/A N/A E8        29.71F
KILL DEVIL HLS HVY RAIN  68  68 100 CALM      29.70F
MANTEO         LGT RAIN  69  68  98 CALM      29.71F
CAPE HATTERAS  CLOUDY    76  70  82 SW16G26   29.73S
TARBORO*       NOT AVBL
GOLDSBORO      LGT RAIN  72  72 100 S6        29.67S
WASHINGTON     RAIN      70  69  98 SW7       29.69F
GREENVILLE     RAIN      70  70 100 SE6       29.71F
NEW BERN       RAIN      70  69  97 SW15      29.73R FOG
WILMINGTON     CLOUDY    71  70  96 SW8       29.74S
$$

VAZ048-240000-
ELSEWHERE

CITY           SKY/WX    TMP DP  RH WIND       PRES   REMARKS
HARRISBURG PA  CLOUDY    64  55  72 CALM      29.82F
BALTIMORE      LGT RAIN  63  59  87 E7        29.81F
ANNAPOLIS      CLOUDY    65  58  78 CALM      29.81F
ANDREWS AFB    DRIZZLE   61  57  88 E3        29.80F
PHILADELPHIA   CLOUDY    65  51  60 E5        29.84R
HENDERSON NC   LGT RAIN  61  60  96 NE8       29.72F
GREENSBORO     LGT RAIN  62  62 100 E10       29.71F FOG
ROCKY MOUNT    RAIN      67  67 100 NE8       29.67F FOG
$$

VAZ100-240000-
MARINE

STATION/POSITION TIME  TEMP    WIND        PRES    WAVE   SWELL
                       AIR SEA DIR/SP/G            HT/PER HT/PER
                 (UTC) (F)     (DEG/KT/KT) (MB)    (FT/S) (FT/S)
CAPE MAY NJ      2242   60 62   60/  6/ 10 1009.4F
LEWES DE         2242   59 63  100/  9/ 10 1009.6F
15NM E FENWICK I 2150   57 56   60/ 10/ 12 1010.2    3/ 8   2/ 8
WACHAPREAGUE VA  2248   60 66   30/ 15/ 18 1007.8F
THOMAS POINT MD  2300   63 65  100/  7/  8   N/A
GOOSES REEF MD   2250   63      70/  8/ 12 1010.0F
COVE POINT MD    2248   61      80/ 10/ 11 1009.7F
SOLOMONS ISLAND  2248           40/  3/  5   N/A
BISHOPS HEAD MD  2242   62 67   60/  8/ 10 1009.3F
PINEY POINT MD   2248           70/  4/  6   N/A
POTOMAC MD       2250   62      70/ 12/ 14 1008.1F
CAMBRIDGE MD     2242   63 69                N/A
LEWISETTA VA     2248   62 68   70/ 10/ 13 1008.7F
RAPPAHANNOCK LGT 2248           40/ 11/ 13 1009.2R
STINGRAY PT      2250   62      80/ 14/ 16 1008.2F
YORK RVR RNG VA  2248   63      70/ 15/ 16 1007.1F
YORKTOWN VA      2248   63 69  270/  4/  6 1007.0F
JAMESTOWN VA     2250   62      70/  6/ 10   N/A
DOMINION TERM VA 2248   62      40/  9/ 15 1007.0F
KIPTOPEKE VA     2248      66   70/ 10/ 15   N/A
CHES BAY BRIDGE  2248   62 67   60/ 17/ 20 1007.0S
CAPE HENRY VA    2248   61      60/ 15/ 17   N/A
WILLOUBY STN VA  2248   62      50/ 17/ 18 1006.9F
S CRANEY ISL VA  2248   63      60/ 14/ 16 1006.7F
CAPE HENRY BUOY  2242      62                N/A     4/ 5
1ST LANDING BUOY 2250   62                 1007.2F
CAPE CHARLES BUO 2221      62                N/A     4/ 4
64NM E OF VA BCH 2250   67 66   80/ 14/ 17 1007.0S   4/ 5   2/ 7
DUCK PIER NC     2248   66 64  100/ 11/ 12 1005.4F
44100 DUCK FRF   2235      66                N/A     4/ 6   2/12
44056 DUCK FRF   2230      65                N/A     3/ 5
OREGON INLET NC  2248          190/ 16/ 19 1005.9F
HATTERAS NC      2248   75 74  190/  7/ 12 1006.4F
DIAMOND SHLS NC  2250   76 76  200/ 23/ 29 1006.5R   7/ 6   2/11
CAPE LOOKOUT NC  2300   73     220/ 17/ 23 1007.0R
$$




USA.gov is the U.S. government's official web portal to all federal, state and local government web resources and services.